[[{"header":{"parameterUnit":"m.s-1","parameterCategory":1,"la1":30.2991,"la2":30.254,"lo1":-89.0895,"lo2":-89.0444,"dy":0.0017,"dx":0.0017,"nx":28,"ny":28,"refTime":"2024-12-15T09:00:00:Z","depth":0,"parameterNumber":2,"parameterNumberName":"U-component_of_WINDS"},"data":[0,0,0,0,0,0,0,0,0,0,0,0,0,0,0,0,0,0,0,0,0,0,0,0,0,0,0,0,0,0,0,0,0,0,0,0,0,0,0,0,0,0,0,0,0,0,0,0,0,0,0,0,0,0,0,0,0,0,-4.6023,-4.6023,0,-4.5998,-4.5998,-4.5998,-4.5876,-4.5873,-4.587,-4.5868,-4.5845,-4.5847,-4.5849,0,0,0,0,0,0,0,0,0,0,0,0,0,-4.5971,-4.5973,-4.6023,-4.6023,-4.6023,-4.5998,-4.5998,-4.5998,-4.5877,-4.5873,-4.587,-4.5866,-4.5844,-4.5847,-4.5849,0,0,0,0,0,0,0,0,0,0,0,0,0,-4.5975,-4.5973,-4.6023,-4.5959,-4.5953,-4.5998,-4.5998,-4.5997,-4.5877,-4.5873,-4.5869,-4.5865,-4.5843,-4.5846,-4.5849,-4.5955,0,0,-4.5859,-4.586,0,0,0,0,0,0,0,0,-4.5975,-4.5977,-4.5969,-4.5964,-4.5957,-4.5936,-4.5971,-4.5983,-4.5878,-4.5906,-4.5868,-4.5863,-4.5879,-4.5879,-4.5884,-4.5954,-4.5953,-4.5859,-4.5861,-4.5862,-4.5863,0,0,0,0,0,0,0,-4.5975,-4.5977,-4.6013,-4.5969,-4.5962,-4.5933,-4.5929,-4.5973,-4.5917,-4.5904,-4.5895,-4.5893,-4.5875,-4.5881,-4.5882,-4.5953,-4.5859,-4.5862,-4.5864,-4.5865,-4.6111,-4.6116,0,0,0,0,0,0,-4.5983,-4.5978,-4.6014,-4.6013,-4.5955,-4.5938,-4.5933,-4.5947,-4.5916,-4.5907,-4.5897,-4.5888,-4.5878,-4.5879,-4.5881,-4.6003,-4.5862,-4.5865,-4.5867,-4.6107,-4.6112,-4.6117,0,0,0,0,0,0,-4.5982,-4.5987,-4.6015,-4.5993,-4.5994,-4.5943,-4.596,-4.5949,-4.5955,-4.5911,-4.5901,-4.5913,-4.5874,-4.5877,-4.5938,-4.6001,-4.5867,-4.587,-4.6101,-4.6108,-4.6115,-4.6249,0,0,0,0,0,0,-4.5981,-4.5988,-4.6026,-4.5995,-4.5996,-4.6071,-4.5964,-4.5951,-4.596,-4.5948,-4.5924,-4.5916,-4.5871,-4.5934,-4.5941,-4.6003,-4.5872,-4.6095,-4.6104,-4.6113,-4.6239,-4.626,-4.6278,0,0,0,0,0,-4.598,-4.6064,-4.6028,-4.6033,-4.6042,-4.6075,-4.6076,-4.6022,-4.5966,-4.6004,-4.5977,-4.5916,-4.5994,-4.5941,-4.5948,-4.6012,-4.6091,-4.6102,-4.6112,-4.623,-4.6255,-4.6277,0,0,0,0,0,0,-4.6104,-4.6059,-4.6018,-4.6095,-4.609,-4.6054,-4.6101,-4.6051,-4.6062,-4.605,-4.5984,-4.598,-4.6051,-4.6038,-4.598,-4.6114,-4.6032,-4.6045,-4.6119,-4.6143,-4.6163,-4.6164,-4.5875,0,0,0,0,0,-4.6141,-4.617,-4.6129,-4.6201,-4.6201,-4.6152,-4.6164,-4.6124,-4.6116,-4.6113,-4.609,-4.6086,-4.6109,-4.6126,-4.6145,-4.6237,-4.6231,-4.6285,-4.6304,-4.6321,-4.6332,-4.6381,-4.6405,-4.6152,-4.6152,-4.6152,0,0,-4.6216,-4.6195,-4.6217,-4.6226,-4.6217,-4.625,-4.6151,-4.619,-4.6214,-4.6119,-4.6175,-4.616,-4.6151,-4.6229,-4.6262,-4.622,-4.6401,-4.6334,-4.6347,-4.6349,-4.6395,-4.6419,-4.644,-4.6159,-4.6158,-4.6157,0,0,-4.6369,-4.6356,-4.6415,-4.6409,-4.6397,-4.6365,-4.638,-4.6353,-4.6339,-4.6394,-4.6325,-4.6354,-4.6395,-4.6392,-4.6396,-4.6555,-4.65,-4.6563,-4.6664,-4.6714,-4.6734,-4.6751,-4.6808,-4.6829,-4.6575,-4.6575,-4.6575,0,-4.6464,-4.651,-4.6452,-4.6497,-4.6503,-4.642,-4.6481,-4.6478,-4.6474,-4.6481,-4.6434,-4.6486,-4.6474,-4.6551,-4.659,-4.6596,-4.6612,-4.6564,-4.6735,-4.6752,-4.6767,-4.6821,-4.6843,-4.6583,-4.6582,-4.6581,-4.658,0,-4.6628,-4.6662,-4.6711,-4.6709,-4.6722,-4.6775,-4.6726,-4.6747,-4.6707,-4.6681,-4.674,-4.6724,-4.6739,-4.6755,-4.6716,-4.6827,-4.6802,-4.6747,-4.6663,-4.68,-4.6849,-4.687,-4.6594,-4.6591,-4.6589,-4.6587,0,0,-4.6855,-4.6824,-4.6843,-4.6842,-4.6825,-4.685,-4.6901,-4.6916,-4.6935,-4.6936,-4.6977,-4.7016,-4.6966,-4.6971,-4.6932,-4.6975,-4.7103,-4.6914,-4.6913,-4.695,-4.7227,-4.7268,-4.7292,-4.7068,-4.7072,-4.7074,-4.7227,0,-4.7002,-4.7084,-4.7036,-4.7126,-4.7157,-4.7081,-4.7125,-4.7121,-4.7099,-4.7124,-4.71,-4.7129,-4.706,-4.7063,-4.7103,-4.7079,-4.7158,-4.7068,-4.7106,-4.7108,-4.7109,-4.7318,-4.736,-4.7505,-4.7246,-4.725,-4.7252,0,-4.7182,-4.7192,-4.7286,-4.7266,-4.7277,-4.7317,-4.7328,-4.7353,-4.7348,-4.7329,-4.7337,-4.7289,-4.7339,-4.7258,-4.7327,-4.7267,-4.7281,-4.7273,-4.7277,-4.7277,-4.7187,-4.7323,-4.755,-4.7571,-4.7282,-4.7279,-4.7277,0,-4.7339,-4.7376,-4.7437,-4.7439,-4.7416,-4.7447,-4.744,-4.743,-4.7443,-4.7454,-4.7462,-4.748,-4.7489,-4.7504,-4.7463,-4.7408,-4.7538,-4.7454,-4.7525,-4.7526,-4.7553,-4.7552,-4.7785,-4.7565,-4.7565,-4.7564,-4.7564,0,-4.7507,-4.7567,-4.7507,-4.7544,-4.761,-4.7556,-4.7624,-4.7608,-4.7602,-4.7636,-4.7573,-4.7607,-4.755,-4.758,-4.7548,-4.7611,-4.7616,-4.7603,-4.7593,-4.7608,-4.7609,-4.7614,-4.7603,-4.757,-4.7569,-4.7568,-4.7567,0,-4.769,-4.7653,-4.7714,-4.769,-4.7685,-4.7735,-4.7715,-4.775,-4.7725,-4.777,-4.7778,-4.774,-4.7771,-4.7732,-4.776,-4.7738,-4.7824,-4.78,-4.7826,-4.7818,-4.7891,-4.7885,-4.8134,-4.8165,-4.7927,-4.7929,-4.7931,0,-4.7799,-4.7843,-4.7825,-4.7843,-4.784,-4.787,-4.7884,-4.7834,-4.7851,-4.7852,-4.7887,-4.7914,-4.7931,-4.7986,-4.7962,-4.7984,-4.7959,-4.8046,-4.7962,-4.7976,-4.796,-4.7957,-4.7962,-4.8062,-4.8065,-4.8067,-4.8069,0,-4.7996,-4.7976,-4.7997,-4.8014,-4.8032,-4.8043,-4.8049,-4.8068,-4.8017,-4.804,-4.8071,-4.8086,-4.8115,-4.8143,-4.8159,-4.8153,-4.8103,-4.8096,-4.8113,-4.8127,-4.814,-4.8134,-4.7871,-4.809,-4.8088,-4.8086,-4.8085,-4.8084,-4.8144,-4.8181,-4.8175,-4.8202,-4.8202,-4.821,-4.8242,-4.8223,-4.8248,-4.8267,-4.8238,-4.8278,-4.8276,-4.8292,-4.8292,-4.8324,-4.8287,-4.8313,-4.8319,-4.8325,-4.8336,-4.8137,-4.8327,-4.8327,-4.8326,-4.8325,-4.8325,0,-4.8337,-4.833,-4.8356,-4.8367,-4.839,-4.8342,-4.8348,-4.837,-4.8405,-4.8407,-4.8427,-4.8466,-4.8493,-4.8473,-4.8496,-4.8526,-4.8504,-4.8534,-4.853,-4.853,-4.8368,-4.835,-4.8551,-4.8551,-4.8551,-4.8551,-4.8551,-4.8551,-4.844,-4.85,-4.8481,-4.8542,-4.8535,-4.8573,-4.8581,-4.8589,-4.859,-4.8636,-4.8658,-4.8645,-4.8639,-4.8662,-4.8686,-4.868,-4.8691,-4.8729,-4.8715,-4.8563,-4.8541,-4.852,-4.8503,-4.8732,-4.8733,-4.8873,-4.8875,-4.8876]},{"header":{"parameterUnit":"m.s-1","parameterCategory":1,"la1":30.2991,"la2":30.254,"lo1":-89.0895,"lo2":-89.0444,"dy":0.0017,"dx":0.0017,"nx":28,"ny":28,"refTime":"2024-12-15T09:00:00:Z","depth":0,"parameterNumber":3,"parameterNumberName":"V-component_of_WINDS"},"data":[0,0,0,0,0,0,0,0,0,0,0,0,0,0,0,0,0,0,0,0,0,0,0,0,0,0,0,0,0,0,0,0,0,0,0,0,0,0,0,0,0,0,0,0,0,0,0,0,0,0,0,0,0,0,0,0,0,0,0.1728,0.1728,0,0.1737,0.1737,0.1737,0.1743,0.1743,0.1743,0.1743,0.1753,0.1754,0.1754,0,0,0,0,0,0,0,0,0,0,0,0,0,0.1717,0.1717,0.1728,0.1728,0.1728,0.1737,0.1737,0.1737,0.1743,0.1743,0.1743,0.1743,0.1753,0.1754,0.1754,0,0,0,0,0,0,0,0,0,0,0,0,0,0.1724,0.1717,0.1728,0.1732,0.1733,0.1737,0.1737,0.1737,0.1743,0.1743,0.1743,0.1743,0.1753,0.1754,0.1754,0.1755,0,0,0.1755,0.1755,0,0,0,0,0,0,0,0,0.1723,0.1724,0.1731,0.1732,0.1732,0.1739,0.1737,0.1743,0.1743,0.1739,0.1743,0.1744,0.1749,0.1749,0.1751,0.1755,0.1756,0.1755,0.1755,0.1755,0.1755,0,0,0,0,0,0,0,0.1723,0.1724,0.1732,0.1732,0.1732,0.1734,0.1735,0.1738,0.1744,0.174,0.174,0.1741,0.1749,0.1751,0.1751,0.1756,0.1755,0.1755,0.1755,0.1756,0.1764,0.1764,0,0,0,0,0,0,0.1722,0.1723,0.1731,0.1732,0.1728,0.1734,0.1735,0.1737,0.1744,0.1745,0.1741,0.1741,0.175,0.1751,0.1752,0.1754,0.1755,0.1756,0.1756,0.1764,0.1764,0.1764,0,0,0,0,0,0,0.1721,0.1722,0.1731,0.1728,0.1729,0.1735,0.1736,0.1737,0.1739,0.1745,0.1746,0.1742,0.175,0.1751,0.1754,0.1755,0.1756,0.1756,0.1764,0.1764,0.1764,0.1759,0,0,0,0,0,0,0.1721,0.1722,0.1722,0.1728,0.1729,0.1733,0.1736,0.1737,0.1739,0.174,0.1745,0.1746,0.175,0.1754,0.1755,0.1755,0.1756,0.1764,0.1764,0.1764,0.1759,0.1759,0.1759,0,0,0,0,0,0.1721,0.172,0.1722,0.1723,0.1729,0.1733,0.1734,0.1738,0.1739,0.174,0.1744,0.1746,0.1755,0.1754,0.1755,0.1756,0.1764,0.1764,0.1764,0.1759,0.1759,0.1759,0,0,0,0,0,0,0.1714,0.1721,0.1723,0.1724,0.1728,0.1734,0.1734,0.1737,0.1741,0.1741,0.1746,0.1748,0.1751,0.1754,0.1753,0.1758,0.176,0.176,0.1756,0.1756,0.1755,0.1755,0.1757,0,0,0,0,0,0.1713,0.1715,0.1721,0.1722,0.1723,0.1729,0.173,0.1733,0.1738,0.1739,0.1743,0.1748,0.1752,0.1754,0.1757,0.176,0.1762,0.1761,0.1761,0.1761,0.1761,0.1764,0.1764,0.1764,0.1764,0.1764,0,0,0.171,0.1714,0.1715,0.172,0.1724,0.1727,0.173,0.1732,0.1735,0.174,0.1743,0.1747,0.1752,0.1755,0.1757,0.1758,0.1761,0.1761,0.176,0.1761,0.1764,0.1764,0.1764,0.1764,0.1764,0.1764,0,0,0.1707,0.171,0.1711,0.1715,0.172,0.1724,0.1724,0.173,0.1732,0.1736,0.174,0.1744,0.175,0.1754,0.1756,0.1757,0.176,0.1758,0.1756,0.1759,0.1759,0.1759,0.176,0.1761,0.1758,0.1758,0.1758,0,0.1703,0.1707,0.1711,0.1714,0.1717,0.1722,0.1724,0.1727,0.1733,0.1736,0.1737,0.1745,0.1749,0.1754,0.1754,0.1756,0.1758,0.1757,0.1759,0.1759,0.1759,0.176,0.176,0.1758,0.1758,0.1758,0.1758,0,0.1702,0.1705,0.1706,0.1712,0.1715,0.1717,0.1723,0.1726,0.1729,0.1733,0.1738,0.1743,0.1748,0.1749,0.1752,0.1755,0.1756,0.1758,0.1759,0.1759,0.176,0.176,0.1757,0.1757,0.1757,0.1757,0,0,0.1694,0.1704,0.1704,0.1708,0.1715,0.1717,0.1721,0.1726,0.1729,0.1733,0.1737,0.1742,0.1745,0.1748,0.1752,0.1754,0.1756,0.1756,0.1756,0.1756,0.1761,0.176,0.176,0.1758,0.1758,0.1758,0.1761,0,0.1692,0.1698,0.1703,0.1707,0.1711,0.1717,0.172,0.1725,0.1729,0.1733,0.1738,0.1742,0.1745,0.1747,0.175,0.1755,0.1757,0.1755,0.1762,0.1762,0.1761,0.176,0.1759,0.1761,0.1761,0.1761,0.1761,0,0.169,0.1695,0.17,0.1708,0.171,0.1712,0.1719,0.1722,0.1729,0.1732,0.1736,0.174,0.1745,0.1747,0.1754,0.1753,0.1756,0.1759,0.1759,0.176,0.1762,0.1762,0.1762,0.1762,0.1762,0.1762,0.1762,0,0.1685,0.1693,0.1697,0.17,0.1709,0.1711,0.1715,0.1721,0.1725,0.1731,0.1733,0.174,0.1743,0.1748,0.1754,0.1754,0.1762,0.1763,0.1765,0.1765,0.1766,0.1766,0.1767,0.1767,0.1767,0.1767,0.1767,0,0.1683,0.1686,0.1695,0.1698,0.1702,0.1708,0.1712,0.1716,0.1722,0.1727,0.1732,0.1736,0.1744,0.1749,0.1754,0.176,0.1761,0.1764,0.1766,0.1764,0.1764,0.1767,0.1767,0.1768,0.1768,0.1767,0.1767,0,0.1677,0.1683,0.1689,0.1697,0.17,0.1702,0.171,0.1714,0.1719,0.1724,0.1726,0.1734,0.1741,0.1747,0.1756,0.1759,0.1766,0.1767,0.1763,0.1764,0.1766,0.1766,0.1769,0.1771,0.177,0.177,0.177,0,0.1675,0.1678,0.1687,0.1691,0.1695,0.17,0.1704,0.1711,0.1715,0.1723,0.1726,0.1733,0.1739,0.175,0.1757,0.1764,0.1766,0.1767,0.1767,0.1766,0.1767,0.1767,0.1768,0.1766,0.1766,0.1766,0.1766,0,0.1672,0.1675,0.1681,0.1688,0.1692,0.1698,0.1704,0.1707,0.1715,0.1719,0.1726,0.1731,0.1741,0.1748,0.1757,0.1761,0.1766,0.1766,0.1767,0.1766,0.1764,0.1766,0.1764,0.1766,0.1766,0.1766,0.1766,0.1766,0.1669,0.1672,0.1679,0.1686,0.1691,0.1697,0.1701,0.1707,0.1713,0.1721,0.1725,0.1733,0.1741,0.1752,0.1757,0.1764,0.1765,0.1766,0.1766,0.1767,0.1767,0.1763,0.1765,0.1765,0.1765,0.1765,0.1765,0,0.1666,0.1672,0.1677,0.1686,0.1691,0.1695,0.1702,0.1707,0.1713,0.172,0.1727,0.1736,0.1743,0.1751,0.176,0.1763,0.1766,0.1765,0.1765,0.1767,0.1765,0.1764,0.1764,0.1764,0.1764,0.1764,0.1764,0.1764,0.1666,0.1671,0.1676,0.1685,0.1691,0.1698,0.1702,0.1708,0.1714,0.1724,0.173,0.1736,0.1744,0.1753,0.176,0.1763,0.1766,0.1765,0.1768,0.1766,0.1767,0.1767,0.1766,0.1766,0.1766,0.177,0.177,0.177]}]]